Location: Ottawa
(45.4170°N, 75.7000°W)
Time: 03:27:51
(UTC-04:00)

Amateur Radio Satellites - All Passes

Search period start: 19 August 2017 02:57
Search period end: 20 August 2017 02:57
Location: Ottawa, 45.4170°N, 75.7000°W

Satellite Date Start Highest point End Downlink Frequencies (MHz)
Time Altitude Azimuth
CUBESAT XI-V 19 Aug 03:00:38 03:02:09 11° 57° (ENE) 03:03:40 437.345
Oscar 19 19 Aug 03:01:44 03:06:57 72° 287° (WNW) 03:12:08 437.125/150
AO-7 19 Aug 03:04:04 03:09:07 17° 88° (E) 03:14:07 .
UKube-1 19 Aug 03:05:51 03:08:29 16° 269° (W) 03:11:08 .
ITUPSAT 1 19 Aug 03:11:48 03:16:32 73° 73° (ENE) 03:21:17 437.325
YUBILEINY 19 Aug 03:50:28 03:59:15 87° 83° (E) 04:07:57 435.215
Gurwin Techsat 1B 19 Aug 03:57:04 04:01:57 38° 294° (WNW) 04:06:49 435.225
NO-84 19 Aug 04:00:29 04:03:03 29° 334° (NNW) 04:05:38 435.350 FM
ITAMSAT 1 19 Aug 04:16:25 04:21:21 43° 99° (E) 04:26:14 435.822/435.867
BEESAT 19 Aug 04:17:39 04:21:40 27° 265° (W) 04:25:43 436.000
MOZHAYETS 4 19 Aug 04:21:13 04:25:09 29° 265° (W) 04:29:08
CUBESAT XI-V 19 Aug 04:34:05 04:38:44 84° 78° (ENE) 04:43:27 437.345
Oscar 19 19 Aug 04:43:34 04:45:21 12° 306° (NW) 04:47:07 437.125/150
KKS-1 19 Aug 04:47:34 04:51:58 57° 72° (ENE) 04:56:22 437.445
ITUPSAT 1 19 Aug 04:52:30 04:54:53 14° 271° (W) 04:57:16 437.325
AO-7 19 Aug 04:54:46 05:03:10 80° 108° (ESE) 05:11:28 .
STARS 19 Aug 05:32:17 05:36:40 71° 74° (ENE) 05:41:03 437.465
NO-84 19 Aug 05:39:40 05:41:10 13° 355° (N) 05:42:42 435.350 FM
BEESAT 3 19 Aug 05:47:37 05:51:15 34° 117° (ESE) 05:54:55 437.485
YUBILEINY 19 Aug 05:48:54 05:54:51 21° 283° (WNW) 06:00:48 435.215
STRAND 1 19 Aug 05:55:19 05:57:33 13° 56° (NE) 05:59:45 437.568
ITAMSAT 1 19 Aug 05:56:17 06:00:37 28° 297° (WNW) 06:04:55 435.822/435.867
AO-85 19 Aug 05:57:00 06:00:19 26° 116° (ESE) 06:03:38 145.980
BEESAT 2 19 Aug 05:57:54 06:00:13 15° 111° (ESE) 06:02:34 435.950
XW-2C 19 Aug 06:11:03 06:13:09 14° 91° (E) 06:15:16 145.795 - 145.815
CUTE-I 19 Aug 06:11:06 06:14:14 16° 89° (E) 06:17:21 437.470
CUBESAT XI-V 19 Aug 06:15:20 06:16:44 11° 273° (W) 06:18:08 437.345
DOVE 4 19 Aug 06:21:46 06:26:23 59° 100° (E) 06:30:42 437.250
XW-2F 19 Aug 06:24:27 06:27:13 19° 93° (E) 06:29:59 145.980 - 146.000
KKS-1 19 Aug 06:26:10 06:28:52 16° 269° (W) 06:31:35 437.445
AO-7 19 Aug 06:48:25 06:55:08 28° 309° (NW) 07:01:50 .
HO-68 19 Aug 06:48:46 06:52:29 15° 86° (E) 06:56:12 435.675
KAITUO 1B 19 Aug 06:52:46 06:56:12 31° 97° (E) 06:59:36 145.475/437.950
LilacSat-2 19 Aug 07:06:55 07:10:47 67° 101° (E) 07:14:39 437.200
STARS 19 Aug 07:11:38 07:13:29 12° 271° (W) 07:15:20 437.465
XW-2D 19 Aug 07:13:48 07:17:39 78° 101° (E) 07:21:30 145.860 - 145.880
SO-50 19 Aug 07:15:21 07:18:55 22° 38° (NE) 07:22:31 436.795
NO-84 19 Aug 07:17:19 07:19:28 18° 17° (NNE) 07:21:42 435.350 FM
FO-29 19 Aug 07:18:48 07:21:37 13° 51° (NE) 07:24:19 435.910
PCSat 19 Aug 07:22:13 07:26:57 29° 44° (NE) 07:31:40 145.827
XW-2B 19 Aug 07:24:48 07:28:39 81° 286° (WNW) 07:32:29 145.730 - 145.750
BEESAT 3 19 Aug 07:25:18 07:28:51 29° 316° (NW) 07:32:25 437.485
NUDT-PHONESAT 19 Aug 07:28:29 07:32:15 83° 104° (ESE) 07:36:00 437.300
STRAND 1 19 Aug 07:30:47 07:35:54 82° 74° (ENE) 07:41:02 437.568
CUTE 1.7 + AOD 2 19 Aug 07:32:13 07:35:39 23° 93° (E) 07:39:04 437.475
BEESAT 2 19 Aug 07:33:32 07:37:30 60° 309° (NW) 07:41:32 435.950
AO-85 19 Aug 07:37:03 07:40:36 32° 315° (NW) 07:44:11 145.980
XW-2C 19 Aug 07:43:54 07:47:36 47° 287° (WNW) 07:51:17 145.795 - 145.815
CUTE-I 19 Aug 07:49:32 07:54:52 75° 287° (WNW) 08:00:09 437.470
XW-2F 19 Aug 07:57:57 08:01:27 34° 289° (WNW) 08:04:56 145.980 - 146.000
DOVE 4 19 Aug 08:00:35 08:03:33 17° 300° (WNW) 08:06:24 437.250
SEEDS 19 Aug 08:23:32 08:27:42 50° 99° (E) 08:31:50 437.485
AO-73 19 Aug 08:26:37 08:28:49 14° 90° (E) 08:31:01 145.935
KAITUO 1B 19 Aug 08:27:07 08:30:01 21° 293° (WNW) 08:32:55 145.475/437.950
HO-68 19 Aug 08:34:08 08:41:20 78° 106° (ESE) 08:48:30 435.675
LilacSat-2 19 Aug 08:43:06 08:44:33 12° 298° (WNW) 08:45:58 437.200
XW-2D 19 Aug 08:50:55 08:51:14 10° 300° (WNW) 08:51:33 145.860 - 145.880
NO-84 19 Aug 08:54:11 08:57:14 79° 36° (NE) 09:00:30 435.350 FM
UWE-3 19 Aug 08:54:30 08:58:38 52° 100° (E) 09:02:51 435.000/436.395/437.385
SO-50 19 Aug 08:55:15 08:59:47 66° 237° (WSW) 09:04:21 436.795
CUBEBUG 2 19 Aug 08:57:33 09:01:44 85° 288° (WNW) 09:05:59 437.445
FO-29 19 Aug 08:58:02 09:05:24 56° 69° (ENE) 09:12:06 435.910
XW-2A 19 Aug 09:02:03 09:05:24 60° 286° (WNW) 09:08:45 145.665 - 145.685
PCSat 19 Aug 09:05:21 09:10:38 53° 244° (WSW) 09:15:53 145.827
CUTE 1.7 + AOD 2 19 Aug 09:07:38 09:11:34 36° 290° (WNW) 09:15:29 437.475
Oscar 11 19 Aug 09:12:53 09:16:47 31° 96° (E) 09:20:39 .
STRAND 1 19 Aug 09:13:17 09:15:43 13° 272° (W) 09:18:09 437.568
BEESAT 2 19 Aug 09:14:29 09:16:06 12° 329° (NNW) 09:17:44 435.950
AAUSAT CUBESAT 2 19 Aug 09:15:06 09:19:19 85° 106° (ESE) 09:23:30 437.432
O/OREOS (USA 219) 19 Aug 09:27:09 09:30:06 18° 100° (E) 09:33:04 437.305
UNISAT 6 19 Aug 09:27:38 09:31:35 35° 69° (ENE) 09:35:30 437.425
CUTE-I 19 Aug 09:31:53 09:34:00 12° 306° (NW) 09:36:06 437.470
ZACube-1 19 Aug 09:38:43 09:42:59 87° 103° (ESE) 09:47:20 437.345
M-CUBED/EXP-1 PRIME 19 Aug 09:43:53 09:45:59 13° 52° (NE) 09:48:07 437.505
SEEDS 19 Aug 10:00:11 10:03:00 18° 297° (WNW) 10:05:50 437.485
AO-73 19 Aug 10:01:12 10:05:25 60° 286° (WNW) 10:09:41 145.935
TIGRISAT 19 Aug 10:02:53 10:07:12 75° 75° (ENE) 10:11:29 435.000
PRISM 19 Aug 10:08:45 10:12:53 69° 74° (ENE) 10:17:03 437.425
RS-15 19 Aug 10:12:45 10:21:17 23° 98° (E) 10:29:52 29.354- 29.394
EO-88 19 Aug 10:15:10 10:17:55 20° 94° (E) 10:20:40 145.990 - 145.960
HO-68 19 Aug 10:22:52 10:28:21 25° 305° (NW) 10:33:50 435.675
UWE-3 19 Aug 10:32:03 10:34:43 17° 297° (WNW) 10:37:25 435.000/436.395/437.385
NO-84 19 Aug 10:32:50 10:34:18 12° 231° (SW) 10:35:47 435.350 FM
DELFI C3 19 Aug 10:38:37 10:42:36 65° 101° (E) 10:46:32 145.870
Tancredo 1 19 Aug 10:41:50 10:44:41 54° 147° (SSE) 10:47:33 437.200
QB50P2 19 Aug 10:43:49 10:46:14 15° 62° (ENE) 10:48:40 145.880/145.840
FO-29 19 Aug 10:43:53 10:50:36 33° 265° (W) 10:56:52 435.910
EO-79 19 Aug 10:45:25 10:47:40 14° 61° (ENE) 10:49:55 145.935-145.965
Oscar 11 19 Aug 10:49:08 10:52:50 27° 293° (WNW) 10:56:31 .
Max Valier Satellite 19 Aug 10:49:44 10:53:25 68° 100° (E) 10:57:06 145.860
AAUSAT CUBESAT 2 19 Aug 10:53:00 10:54:06 11° 301° (WNW) 10:55:12 437.432
O/OREOS (USA 219) 19 Aug 11:04:44 11:09:05 51° 298° (WNW) 11:13:29 437.305
UNISAT 6 19 Aug 11:04:53 11:08:22 23° 266° (W) 11:11:51 437.425
M-CUBED/EXP-1 PRIME 19 Aug 11:15:08 11:19:37 84° 69° (ENE) 11:24:18 437.505
DUCHIFAT 1 19 Aug 11:16:33 11:19:51 23° 66° (ENE) 11:23:09 145.980
ZACube-1 19 Aug 11:17:31 11:18:38 11° 301° (WNW) 11:19:45 437.345
ISS 19 Aug 11:18:01 11:21:02 35° 142° (SE) 11:24:05 437.550
nSIGHT-1 19 Aug 11:28:42 11:31:51 46° 144° (SE) 11:35:00 .
AIST 2D 19 Aug 11:32:08 11:35:36 84° 258° (WSW) 11:39:08 435.315
ESTCUBE 1 19 Aug 11:32:32 11:35:31 17° 91° (E) 11:38:28 437.505/2401.250
TIGRISAT 19 Aug 11:43:13 11:44:24 11° 272° (W) 11:45:35 435.000
PRISM 19 Aug 11:47:11 11:48:37 11° 271° (W) 11:50:04 437.425
EO-88 19 Aug 11:48:23 11:51:38 30° 290° (WNW) 11:54:52 145.990 - 145.960
LO-87 19 Aug 11:50:53 11:54:10 35° 98° (E) 11:57:26 145.935 - 145.965
NANOSAT C BR1 19 Aug 11:59:27 12:03:38 73° 74° (ENE) 12:07:49 145.865
POLYITAN 1 19 Aug 12:02:19 12:06:31 86° 72° (ENE) 12:10:44 437.675
Gurwin Techsat 1B 19 Aug 12:05:52 12:06:36 10° 52° (NE) 12:07:20 435.225
DELFI C3 19 Aug 12:15:05 12:16:51 13° 299° (WNW) 12:18:35 145.870
Tancredo 1 19 Aug 12:17:22 12:20:01 31° 344° (NNW) 12:22:42 437.200
QB50P2 19 Aug 12:17:24 12:21:34 59° 259° (W) 12:25:45 145.880/145.840
EO-79 19 Aug 12:18:46 12:22:56 63° 258° (WSW) 12:27:08 145.935-145.965
RS-15 19 Aug 12:19:35 12:31:50 80° 121° (ESE) 12:44:11 29.354- 29.394
Max Valier Satellite 19 Aug 12:25:54 12:26:43 11° 299° (WNW) 12:27:33 145.860
Oscar 19 19 Aug 12:42:25 12:46:49 29° 64° (ENE) 12:51:15 437.125/150
AO-85 19 Aug 12:46:21 12:47:30 11° 29° (NNE) 12:48:40 145.980
DUCHIFAT 1 19 Aug 12:51:31 12:55:21 34° 263° (W) 12:59:12 145.980
M-CUBED/EXP-1 PRIME 19 Aug 12:52:56 12:54:37 12° 268° (W) 12:56:19 437.505
ISS 19 Aug 12:54:19 12:57:29 44° 340° (NNW) 13:00:39 437.550
BUGSAT 1 19 Aug 12:58:34 13:02:40 81° 76° (ENE) 13:06:45 437.445
nSIGHT-1 19 Aug 13:05:13 13:08:17 38° 342° (NNW) 13:11:23 .
ESTCUBE 1 19 Aug 13:08:12 13:12:39 54° 288° (WNW) 13:17:04 437.505/2401.250
VELOX 1 19 Aug 13:22:53 13:27:10 46° 99° (E) 13:31:25 145.980
LO-87 19 Aug 13:25:03 13:27:20 16° 295° (WNW) 13:29:36 145.935 - 145.965
DX 1 19 Aug 13:31:22 13:34:17 17° 92° (E) 13:37:10 434.975-435.025
NANOSAT C BR1 19 Aug 13:38:41 13:39:50 11° 272° (W) 13:40:58 145.865
Gurwin Techsat 1B 19 Aug 13:40:16 13:45:30 62° 71° (ENE) 13:50:46 435.225
SPROUT 19 Aug 13:44:27 13:48:43 80° 284° (WNW) 13:52:56 437.525
Tancredo 1 19 Aug 13:53:21 13:55:47 23° 4° (N) 13:58:13 437.200
ITAMSAT 1 19 Aug 14:00:32 14:02:56 13° 55° (NE) 14:05:20 435.822/435.867
BEESAT 3 19 Aug 14:02:02 14:05:53 42° 48° (NE) 14:09:39 437.485
AO-7 19 Aug 14:04:51 14:12:02 34° 54° (NE) 14:19:14 .
BEESAT 2 19 Aug 14:11:55 14:15:11 23° 41° (NE) 14:18:25 435.950
Oscar 19 19 Aug 14:21:11 14:25:59 40° 263° (W) 14:30:51 437.125/150
AO-85 19 Aug 14:24:42 14:28:50 49° 50° (NE) 14:33:15 145.980
50 SAT 19 Aug 14:29:46 14:33:10 69° 285° (WNW) 14:36:30 437.505
ISS 19 Aug 14:31:39 14:34:29 26° 360° (N) 14:37:19 437.550
RS-15 19 Aug 14:34:02 14:45:38 44° 328° (NNW) 14:57:11 29.354- 29.394
nSIGHT-1 19 Aug 14:42:24 14:45:14 26° 3° (N) 14:48:03 .
UKube-1 19 Aug 14:48:23 14:52:43 73° 102° (ESE) 14:57:00 .
VELOX 1 19 Aug 15:00:05 15:03:17 20° 297° (WNW) 15:06:29 145.980
YUBILEINY 19 Aug 15:00:35 15:06:36 21° 77° (ENE) 15:12:35 435.215
DX 1 19 Aug 15:06:31 15:10:44 49° 289° (WNW) 15:14:55 434.975-435.025
ITUPSAT 1 19 Aug 15:11:18 15:14:08 15° 90° (E) 15:16:57 437.325
Gurwin Techsat 1B 19 Aug 15:22:09 15:25:52 19° 269° (W) 15:29:37 435.225
Tancredo 1 19 Aug 15:28:33 15:31:25 53° 24° (NNE) 15:34:17 437.200
ITAMSAT 1 19 Aug 15:36:23 15:41:35 82° 74° (ENE) 15:46:49 435.822/435.867
BEESAT 3 19 Aug 15:40:08 15:43:12 21° 247° (WSW) 15:46:12 437.485
BEESAT 2 19 Aug 15:49:14 15:53:11 49° 240° (WSW) 15:57:03 435.950
DOVE 4 19 Aug 15:54:16 15:56:21 12° 57° (ENE) 15:58:26 437.250
AO-7 19 Aug 15:55:57 16:04:16 67° 255° (WSW) 16:12:38 .
AO-85 19 Aug 16:05:40 16:09:00 22° 246° (WSW) 16:12:31 145.980
ISS 19 Aug 16:08:20 16:11:29 44° 20° (NNE) 16:14:38 437.550
MOZHAYETS 4 19 Aug 16:13:01 16:17:33 54° 100° (E) 16:22:04
BEESAT 19 Aug 16:14:23 16:19:08 63° 102° (ESE) 16:23:51 436.000
nSIGHT-1 19 Aug 16:18:53 16:22:06 51° 23° (NNE) 16:25:16 .
UKube-1 19 Aug 16:26:04 16:28:10 13° 301° (WNW) 16:30:15 .
CUBESAT XI-V 19 Aug 16:29:17 16:32:33 18° 91° (E) 16:35:47 437.345
ITUPSAT 1 19 Aug 16:47:39 16:52:23 65° 288° (WNW) 16:57:07 437.325
RS-15 19 Aug 16:51:54 17:02:22 30° 2° (N) 17:12:34 29.354- 29.394
YUBILEINY 19 Aug 16:53:22 17:02:12 88° 279° (W) 17:11:01 435.215
XW-2C 19 Aug 16:56:20 16:56:48 10° 61° (ENE) 16:57:16 145.795 - 145.815
Tancredo 1 19 Aug 17:04:08 17:06:26 21° 222° (SW) 17:08:44 437.200
XW-2F 19 Aug 17:08:22 17:10:11 13° 63° (ENE) 17:12:02 145.980 - 146.000
ITAMSAT 1 19 Aug 17:19:08 17:21:41 14° 271° (W) 17:24:15 435.822/435.867
HO-68 19 Aug 17:20:50 17:25:04 17° 49° (NE) 17:29:17 435.675
STARS 19 Aug 17:22:14 17:22:57 10° 88° (E) 17:23:42 437.465
DOVE 4 19 Aug 17:27:55 17:33:12 76° 74° (ENE) 17:38:23 437.250
CUTE-I 19 Aug 17:34:22 17:39:06 33° 65° (ENE) 17:43:49 437.470
KAITUO 1B 19 Aug 17:35:09 17:37:57 21° 67° (ENE) 17:40:47 145.475/437.950
ISS 19 Aug 17:44:54 17:47:56 36° 218° (SW) 17:50:57 437.550
LilacSat-2 19 Aug 17:50:38 17:54:13 42° 72° (ENE) 17:57:50 437.200
MOZHAYETS 4 19 Aug 17:51:07 17:54:19 19° 298° (WNW) 17:57:30
BEESAT 19 Aug 17:53:18 17:56:25 18° 300° (WNW) 17:59:32 436.000
AO-7 19 Aug 17:54:56 17:58:35 13° 275° (W) 18:02:16 .
nSIGHT-1 19 Aug 17:55:30 17:58:20 27° 220° (SW) 18:01:08 .
XW-2D 19 Aug 17:56:47 18:00:25 48° 72° (ENE) 18:04:04 145.860 - 145.880
CUBESAT XI-V 19 Aug 18:05:37 18:10:14 53° 288° (WNW) 18:14:49 437.345
XW-2B 19 Aug 18:07:41 18:11:24 63° 74° (ENE) 18:15:08 145.730 - 145.750
NUDT-PHONESAT 19 Aug 18:09:25 18:12:57 48° 73° (ENE) 18:16:31 437.300
KKS-1 19 Aug 18:12:32 18:17:00 85° 104° (ESE) 18:21:25 437.445
CUBEBUG 2 19 Aug 18:24:16 18:25:39 11° 60° (ENE) 18:27:03 437.445
XW-2C 19 Aug 18:26:40 18:30:24 74° 258° (WSW) 18:34:12 145.795 - 145.815
CUTE 1.7 + AOD 2 19 Aug 18:27:02 18:30:17 22° 65° (ENE) 18:33:33 437.475
XW-2F 19 Aug 18:40:14 18:43:53 53° 260° (W) 18:47:35 145.980 - 146.000
YUBILEINY 19 Aug 18:54:00 19:00:22 22° 301° (WNW) 19:06:45 435.215
STARS 19 Aug 18:55:29 18:59:53 81° 285° (WNW) 19:04:13 437.465
HO-68 19 Aug 19:04:29 19:11:36 72° 69° (ENE) 19:18:44 435.675
RS-15 19 Aug 19:07:09 19:18:51 47° 35° (NE) 19:29:58 29.354- 29.394
DOVE 4 19 Aug 19:08:17 19:11:22 16° 272° (W) 19:14:26 437.250
KAITUO 1B 19 Aug 19:08:29 19:11:47 30° 264° (W) 19:15:07 145.475/437.950
CUTE-I 19 Aug 19:14:07 19:19:03 37° 263° (W) 19:24:02 437.470
SEEDS 19 Aug 19:16:54 19:20:54 44° 71° (ENE) 19:24:56 437.485
AO-73 19 Aug 19:24:40 19:26:52 14° 62° (ENE) 19:29:02 145.935
LilacSat-2 19 Aug 19:26:30 19:28:43 15° 269° (W) 19:30:58 437.200
XW-2D 19 Aug 19:33:04 19:34:53 13° 270° (W) 19:36:43 145.860 - 145.880
O/OREOS (USA 219) 19 Aug 19:33:08 19:37:34 50° 61° (ENE) 19:42:00 437.305
XW-2A 19 Aug 19:34:55 19:38:09 56° 75° (ENE) 19:41:27 145.665 - 145.685
STRAND 1 19 Aug 19:39:40 19:43:43 23° 93° (E) 19:47:45 437.568
NUDT-PHONESAT 19 Aug 19:45:29 19:47:07 13° 270° (W) 19:48:47 437.300
XW-2B 19 Aug 19:45:39 19:46:00 10° 272° (W) 19:46:21 145.730 - 145.750
KKS-1 19 Aug 19:51:08 19:52:53 12° 302° (WNW) 19:54:37 437.445
UWE-3 19 Aug 19:53:23 19:57:29 53° 73° (ENE) 20:01:32 435.000/436.395/437.385
CUBEBUG 2 19 Aug 19:57:23 20:01:42 81° 257° (WSW) 20:05:55 437.445
CUTE 1.7 + AOD 2 19 Aug 20:01:57 20:05:53 38° 263° (W) 20:09:53 437.475
AAUSAT CUBESAT 2 19 Aug 20:06:42 20:10:50 72° 76° (ENE) 20:15:01 437.432
Oscar 11 19 Aug 20:09:38 20:13:24 31° 68° (ENE) 20:17:13 .
STARS 19 Aug 20:35:11 20:35:27 10° 303° (WNW) 20:35:43 437.465
ZACube-1 19 Aug 20:36:20 20:40:30 87° 79° (E) 20:44:40 437.345
SEEDS 19 Aug 20:53:55 20:56:48 18° 269° (W) 20:59:43 437.485
HO-68 19 Aug 20:54:23 20:59:56 24° 269° (W) 21:05:31 435.675
EO-88 19 Aug 20:55:59 20:57:43 13° 63° (ENE) 20:59:27 145.990 - 145.960
AO-73 19 Aug 20:58:32 21:02:37 60° 259° (W) 21:06:43 145.935
O/OREOS (USA 219) 19 Aug 21:13:27 21:16:36 19° 259° (W) 21:19:44 437.305
STRAND 1 19 Aug 21:18:15 21:23:08 47° 291° (WNW) 21:28:00 437.568
RS-15 19 Aug 21:20:13 21:32:10 70° 242° (WSW) 21:43:28 29.354- 29.394
DELFI C3 19 Aug 21:25:34 21:29:25 48° 73° (ENE) 21:33:18 145.870
Max Valier Satellite 19 Aug 21:30:27 21:33:52 39° 72° (ENE) 21:37:18 145.860
UWE-3 19 Aug 21:31:57 21:34:16 14° 270° (W) 21:36:35 435.000/436.395/437.385
AAUSAT CUBESAT 2 19 Aug 21:45:37 21:46:47 11° 272° (W) 21:47:58 437.432
Oscar 11 19 Aug 21:45:54 21:49:32 27° 265° (W) 21:53:13 .
FO-29 19 Aug 21:51:19 21:56:23 33° 94° (E) 22:01:05 435.910
TIGRISAT 19 Aug 21:53:36 21:55:33 13° 89° (E) 21:57:30 435.000
PCSat 19 Aug 22:08:41 22:11:22 14° 103° (ESE) 22:14:04 145.827
EO-88 19 Aug 22:27:25 22:30:58 50° 260° (W) 22:34:32 145.990 - 145.960
LO-87 19 Aug 22:29:14 22:32:00 21° 67° (ENE) 22:34:45 145.935 - 145.965
ESTCUBE 1 19 Aug 22:34:01 22:37:24 21° 63° (ENE) 22:40:47 437.505/2401.250
UNISAT 6 19 Aug 22:52:53 22:57:08 58° 101° (E) 23:01:25 437.425
DELFI C3 19 Aug 23:02:05 23:04:28 15° 269° (W) 23:06:50 145.870
Max Valier Satellite 19 Aug 23:05:42 23:07:53 15° 269° (W) 23:10:04 145.860
SPROUT 19 Aug 23:06:51 23:08:20 12° 59° (ENE) 23:09:49 437.525
SO-50 19 Aug 23:12:11 23:15:44 23° 113° (ESE) 23:19:16 436.795
PRISM 19 Aug 23:22:55 23:27:05 83° 105° (ESE) 23:31:11 437.425
TIGRISAT 19 Aug 23:28:25 23:32:40 65° 286° (WNW) 23:36:58 435.000
RS-15 19 Aug 23:35:28 23:42:08 17° 265° (W) 23:48:39 29.354- 29.394
FO-29 19 Aug 23:36:22 23:41:34 36° 295° (WNW) 23:46:22 435.910
POLYITAN 1 19 Aug 23:46:49 23:48:24 12° 89° (E) 23:49:58 437.675
PCSat 19 Aug 23:48:32 23:53:58 90° 283° (WNW) 23:59:26 145.827
QB50P2 20 Aug 00:00:42 00:03:41 19° 92° (E) 00:06:40 145.880/145.840
EO-79 20 Aug 00:01:59 00:04:50 17° 92° (E) 00:07:40 145.935-145.965
LO-87 20 Aug 00:02:10 00:05:16 27° 264° (W) 00:08:24 145.935 - 145.965
ESTCUBE 1 20 Aug 00:09:34 00:13:53 46° 261° (W) 00:18:16 437.505/2401.250
VELOX 1 20 Aug 00:21:45 00:26:06 54° 72° (ENE) 00:30:28 145.980
M-CUBED/EXP-1 PRIME 20 Aug 00:26:20 00:30:35 43° 103° (ESE) 00:34:32 437.505
AIST 2D 20 Aug 00:27:54 00:31:28 88° 106° (ESE) 00:35:02 435.315
DX 1 20 Aug 00:28:47 00:32:05 21° 64° (ENE) 00:35:23 434.975-435.025
UNISAT 6 20 Aug 00:30:49 00:33:25 16° 298° (WNW) 00:36:02 437.425
DUCHIFAT 1 20 Aug 00:32:58 00:36:38 29° 96° (E) 00:40:18 145.980
SPROUT 20 Aug 00:39:20 00:43:36 82° 257° (WSW) 00:47:52 437.525
SO-50 20 Aug 00:51:32 00:55:54 48° 312° (NW) 01:00:17 436.795
PRISM 20 Aug 01:00:32 01:01:42 11° 302° (WNW) 01:02:51 437.425
50 SAT 20 Aug 01:02:20 01:05:40 53° 74° (ENE) 01:09:02 437.505
YUBILEINY 20 Aug 01:07:23 01:10:10 12° 48° (NE) 01:12:55 435.215
NANOSAT C BR1 20 Aug 01:16:56 01:21:08 82° 286° (WNW) 01:25:19 145.865
POLYITAN 1 20 Aug 01:20:27 01:24:38 68° 286° (WNW) 01:28:49 437.675
PCSat 20 Aug 01:34:09 01:38:08 20° 322° (NW) 01:42:07 145.827
QB50P2 20 Aug 01:35:41 01:39:40 42° 289° (WNW) 01:43:39 145.880/145.840
EO-79 20 Aug 01:36:48 01:40:49 45° 289° (WNW) 01:44:49 145.935-145.965
UKube-1 20 Aug 01:44:26 01:48:46 80° 74° (ENE) 01:53:07 .
BEESAT 20 Aug 01:48:10 01:50:19 13° 57° (ENE) 01:52:29 436.000
NO-84 20 Aug 01:50:08 01:52:29 22° 133° (SE) 01:54:48 435.350 FM
Gurwin Techsat 1B 20 Aug 01:55:03 01:58:57 20° 91° (E) 02:02:49 435.225
VELOX 1 20 Aug 02:00:02 02:02:52 16° 269° (W) 02:05:42 145.980
M-CUBED/EXP-1 PRIME 20 Aug 02:01:13 02:04:41 22° 302° (WNW) 02:07:58 437.505
DX 1 20 Aug 02:03:48 02:07:59 43° 261° (W) 02:12:11 434.975-435.025
DUCHIFAT 1 20 Aug 02:08:42 02:12:14 27° 293° (WNW) 02:15:44 145.980
BUGSAT 1 20 Aug 02:13:11 02:17:12 79° 284° (WNW) 02:21:13 437.445
ITUPSAT 1 20 Aug 02:19:44 02:23:32 24° 63° (ENE) 02:27:20 437.325
Oscar 19 20 Aug 02:29:56 02:35:07 61° 101° (ESE) 02:40:15 437.125/150
SO-50 20 Aug 02:35:37 02:37:27 12° 334° (NNW) 02:39:17 436.795
